Regional Weather Roundup
Issued by NWS Charleston, SC

Current Version | Previous Version | Text Only | Print | Product List | Glossary Off
Versions: 1 2 3 4 5 6 7 8 9 10 11 12 13 14 15 16 17 18 19 20 21 22 23 24 25 26 27 28 29 30 31 32 33 34 35 36 37 38 39 40 41 42 43 44 45 46 47 48 49 50

000
ASUS42 KCHS 031926
RWRCHS

REGIONAL WEATHER ROUNDUP
NATIONAL WEATHER SERVICE CHARLESTON SC
200 PM EST TUE MAR 03 2015

NOTE: "FAIR" INDICATES FEW OR NO CLOUDS BELOW 12,000 FEET WITH NO
SIGNIFICANT WEATHER AND/OR OBSTRUCTIONS TO VISIBILITY.

NOT ALL STATIONS ARE QUALITY CONTROLLED BY THE NATIONAL
WEATHER SERVICE. USE DATA WITH CAUTION...ESPECIALLY
DEWPOINT OBSERVATIONS.

SCZ027-030-031-034>040-042>050-032000-
...SOUTHEAST SOUTH CAROLINA...

CITY           SKY/WX    TMP DP  RH WIND       PRES   REMARKS
N CHARLESTON   CLOUDY    61  50  67 NE5       30.20F
WATERFRONT PRK   N/A     57 N/A N/A N5          N/A
MOUNT PLEASANT CLOUDY    61  54  77 CALM      30.20F HAZE
PINOPOLIS      NOT AVBL
MONCKS CORNER  CLOUDY    55  48  76 CALM      30.20F
SUMMERVILLE    CLOUDY    55  50  82 NE5       30.21F
BEAUFORT MCAS  CLOUDY    67  59  75 SE3       30.18F
BEAUFORT ARPT  CLOUDY    64  59  82 E5        30.18F
HILTON HEAD IS CLOUDY    61  54  77 N3        30.21F
WALTERBORO     CLOUDY    64  55  72 E5        30.19F
ALLENDALE      FOG       55  55 100 NE5       30.17F VSB 1/4

...SOUTHERN MIDLANDS AND PEE DEE...

CITY           SKY/WX    TMP DP  RH WIND       PRES   REMARKS
GEORGETOWN     NOT AVBL
KINGSTREE      NOT AVBL
ORANGEBURG     CLOUDY    49  46  90 NE6       30.21F
BARNWELL       CLOUDY    54  54 100 E7        30.20F FOG
AIKEN          DRIZZLE   52  52 100 E6        30.23F
MANNING        CLOUDY   N/A N/A N/A NE3       30.22F FOG
COLUMBIA       DRIZZLE   46  46 100 NE6       30.22F FOG
SUMTER         LGT RAIN  41  39  93 NE8       30.22S VSB 3/4
FLORENCE       CLOUDY    43  36  76 NE7       30.25F
MYRTLE BEACH   CLOUDY    48  41  76 NE10      30.26F FOG
N MYRTLE BEACH CLOUDY    55  47  74 E7        30.23F

$$

GAZ063-065-086>088-099>101-113>116-118-119-134>141-150-032000-
...SOUTHEAST GEORGIA...

CITY           SKY/WX    TMP DP  RH WIND       PRES   REMARKS
SAVANNAH ARPT  CLOUDY    73  59  61 S8        30.17F
HUNTER AAF     PTSUNNY   72  63  73 SE7       30.15F
FORT STEWART   CLOUDY    74  63  67 VRB3      30.14F
STATESBORO     CLOUDY    74  64  70 CALM      30.14F
SYLVANIA       PTCLDY    71  64  80 SE5       30.16F
CLAXTON        CLOUDY    73  64  73 S3        30.15F

...CSRA...CENTRAL AND FAR SOUTHEAST GEORGIA...

CITY           SKY/WX    TMP DP  RH WIND       PRES   REMARKS
THOMSON        CLOUDY    54  54 100 NE6       30.23F
AUGUSTA-BUSH   CLOUDY    56  54  93 NE6       30.19F FOG
AUGUSTA-DANIEL CLOUDY    56  54  93 E8        30.19F FOG
SWAINSBORO     NOT AVBL
VIDALIA        CLOUDY    75  64  69 SW5       30.15F
EASTMAN        CLOUDY    80  65  60 W8        30.16F
HAZLEHURST     CLOUDY    79  65  61 S3        30.13F
ALMA           MOSUNNY   78  61  55 S8        30.14F
WAYCROSS       CLOUDY    83  67  56 SW6       30.14F
JESUP          MOCLDY    81  68  65 SW7       30.14F
BAXLEY         PTSUNNY   79  63  57 S8        30.14F
BRUNSWICK      SUNNY     75  63  64 S12       30.16F
SAINT SIMONS   SUNNY     67  60  78 SE8       30.17F

$$

SCZ027-028-034-036>038-045-046-048>050-GAZ119-141-032000-
...LAKE AND SUPPLEMENTAL COASTAL OBSERVATIONS...

STATION/POSITION TIME  TEMP    WIND        PRES    WAVE   SWELL
                       AIR SEA DIR/SP/G            HT/PER HT/PER/DIR
                 (UTC) (F)     (DEG/KT/KT) (MB)    (FT/S) (FT/S/D)
UPR LAKE MARION  NOT AVBL
WINYAH BAY       1800   46      40/ 11     1023.0F
LAKE MURRAY      1900   44      50/  3/  5 1023.0F
ACE BASIN NERRS  NOT AVBL
FORT PULASKI     1900   52 50   80/  9/ 11 1022.8F
SAPELO ISLAND    1900   73     160/  7     1021.0F

$$

ANZ835-935-AMZ111-154-330-350-352-354-370-450-454-472-032000-
...C-MAN AND BUOY OBSERVATIONS...

STATION/POSITION TIME  TEMP    WIND        PRES    WAVE   SWELL
                       AIR SEA DIR/SP/G            HT/PER HT/PER/DIR
                 (UTC) (F)     (DEG/KT/KT) (MB)    (FT/S) (FT/S/D)
BUOY 41004       1850   70 68  160/  6/  8 1021.6F   6/ 7   5/ 7
BUOY 41008       1850   57 56   60/  2/  4 1022.0F   2/ 9   2/110/ 9
FOLLY BEACH CMAN 1900   52      40/  5/  6 1023.1F
CAPERS NEARSHORE NOT AVBL
FRIPP NEARSHORE  1800   51      60/ 10/ 12 1022.6F


STATION/POSITION TIME  TEMP    WIND        PRES    WAVE   SWELL
                       AIR SEA DIR/SP/G            HT/PER HT/PER/DIR
                 (UTC) (F)     (DEG/KT/KT) (MB)    (FT/S) (FT/S/D)
5E ST. MARYS GA  1821      59                N/A     2/ 8
FRYING PAN BUOY  1850   63 60  130/ 14/ 16 1023.4F   5/ 6   3/110/ 8
BUOY 41025       NOT AVBL
CAPE LOOKOUT NC  1900   46      30/ 13/ 15 1024.6F
BUOY 41002       1850   65 72  110/ 14/ 17 1025.2F   7/ 8   5/ 30/ 8
BUOY 41010       1820   73 75  120/ 10/ 14 1023.2F
ST AUGUSTINE FL  1900   63     100/  8/  9 1022.4F


$$


USA.gov is the U.S. government's official web portal to all federal, state and local government web resources and services.